User: anonymous   Login
Location: ???? ??????? ????
(31.2176°N, 31.6797°E)
Time: 14:06:34
(UTC+00:00)
Language:

Cosmos 1076 Rocket - Orbit

View from above orbital plane
View from above orbital plane
View from above satellite
View from above satellite

Ground track
Ground track

The orbit data is extracted from the following two-line orbital elements,

1 11267U 79011B   21016.64262883  .00000092  00000-0  71198-5 0  9996
2 11267  82.5242  73.0699 0016595 189.3622 170.7289 14.89000272249117
Epoch (UTC): 16 January 2021 15:25:23
Eccentricity: 0.0016595
inclination: 82.5242°
perigee height: 589 km
apogee height: 612 km
right ascension of ascending node: 73.0699°
argument of perigee: 189.3622°
revolutions per day: 14.89000272
mean anomaly at epoch: 170.7289°
orbit number at epoch: 24911

The dashed part of the orbit path shows where the satellite is in the earth's shadow,  

DLR